Location: Altavilla Irpina
(41.0000°N, 14.7833°E)
Time: 17:40:40
(UTC+00:00)

DELTA 2 R/B (1) - Pass Details

Date: 19 May 2025
Orbit: 787 x 800 km, 39.6° (Epoch: 16 June)

Event Time Altitude Azimuth Distance (km) Brightness Sun altitude
Rises 18:42:29 0° 220° (SW) 3,261 6.9 -5.2°
Reaches altitude 10° 18:45:13 10° 209° (SSW) 2,336 6.0 -5.6°
Maximum altitude 18:49:55 29° 150° (SSE) 1,408 4.4 -6.4°
Drops below altitude 10° 18:54:37 10° 92° (E) 2,348 5.5 -7.1°
Sets 18:57:23 0° 81° (E) 3,281 6.3 -7.5°
